EW4115 Weather Reports


Display with metric or nautical units.
time (UTC)temp
F
wind
direction
speed
MPH
gust
MPH
rain 1hr
in
rain 24hr
in
rain mn
in
humidity
%
barometer
mb
20260503214534 51 260 0.0 2.0 0.00 0.09 0.00 64 1018.4
20260503213033 51 283 1.0 8.0 0.00 0.09 0.00 63 1018.4
20260503211532 51 254 1.0 4.0 0.00 0.09 0.00 63 1018.3
20260503210030 52 257 1.0 3.0 0.00 0.09 0.00 62 1018.4
20260503204529 52 256 0.0 3.0 0.00 0.09 0.09 61 1018.4
20260503203044 52 283 2.0 9.0 0.00 0.09 0.09 61 1018.5
20260503201532 52 252 1.0 9.0 0.00 0.09 0.09 60 1018.4
20260503200026 52 322 2.0 9.0 0.00 0.09 0.09 60 1018.5
20260503194536 53 256 1.0 7.0 0.00 0.09 0.09 60 1018.5
20260503193025 53 257 2.0 8.0 0.00 0.09 0.09 59 1018.4
20260503191524 53 274 0.0 7.0 0.00 0.09 0.09 60 1018.4
20260503190035 53 252 1.0 10.0 0.00 0.09 0.09 60 1018.3
20260503184524 53 247 1.0 4.0 0.00 0.09 0.09 59 1018.1
20260503183018 53 279 2.0 8.0 0.00 0.09 0.09 59 1017.9
20260503181517 54 269 2.0 10.0 0.00 0.09 0.09 57 1017.7
20260503180016 54 316 0.0 12.0 0.00 0.09 0.09 57 1017.4
20260503174513 54 264 1.0 9.0 0.00 0.09 0.09 57 1017.3
20260503173013 54 287 3.0 9.0 0.00 0.09 0.09 57 1017.1
20260503171511 54 315 4.0 10.0 0.00 0.09 0.09 56 1017.1
20260503081602 55 21 6.0 16.0 0.00 0.09 0.09 62 1016.2
20260503071504 51 350 1.0 4.0 0.00 0.09 0.09 81 1016.1
20260503060116 46 316 0.0 2.0 0.02 0.09 0.09 88 1016.2
20260503054605 45 344 0.0 3.0 0.03 0.09 0.09 87 1016.5
20260503053053 45 59 2.0 7.0 0.04 0.09 0.09 87 1016.8
20260503051550 45 355 1.0 9.0 0.04 0.08 0.08 87 1016.6
20260503050048 46 339 3.0 8.0 0.04 0.08 0.08 87 1016.3
20260503044546 46 345 0.0 8.0 0.02 0.06 0.06 86 1016.3
20260503043042 46 350 3.0 10.0 0.02 0.05 0.05 84 1016.2
20260503041543 47 73 2.0 6.0 0.01 0.04 0.04 85 1015.9
20260503040040 47 318 0.0 2.0 0.01 0.04 0.04 86 1015.6
20260503034538 47 318 0.0 1.0 0.01 0.06 0.04 86 1015.7
20260503033038 47 318 0.0 1.0 0.00 0.05 0.03 86 1015.5
20260503031539 47 318 0.0 1.0 0.00 0.05 0.03 85 1015.4
20260503030044 47 318 0.0 1.0 0.01 0.05 0.03 84 1015.3
20260503024536 47 318 0.0 1.0 0.01 0.05 0.03 83 1015.3
20260503023036 47 318 0.0 1.0 0.01 0.05 0.03 81 1015.5
20260503021534 47 321 0.0 5.0 0.01 0.05 0.03 80 1015.6
20260503020034 48 293 4.0 14.0 0.00 0.04 0.02 79 1015.4
20260503014532 48 326 3.0 11.0 0.00 0.04 0.02 79 1015.4
20260503013031 48 289 0.0 8.0 0.00 0.04 0.02 78 1015.4
20260503011533 47 333 3.0 8.0 0.00 0.04 0.02 78 1015.4
20260503010034 47 308 0.0 6.0 0.00 0.04 0.02 80 1015.5
20260503004529 47 259 2.0 6.0 0.00 0.04 0.02 80 1015.3
20260503003028 47 255 2.0 9.0 0.00 0.04 0.02 81 1015.4
20260503001524 46 263 2.0 6.0 0.00 0.04 0.02 82 1015.5
20260503000022 46 245 1.0 8.0 0.00 0.04 0.02 83 1015.6
20260502234525 47 285 4.0 11.0 0.00 0.04 0.02 82 1015.8
20260502233017 47 277 0.0 7.0 0.02 0.04 0.02 83 1016.2
20260502231517 48 319 0.0 0.0 0.02 0.04 0.02 83 1016.3
20260502230014 48 319 0.0 4.0 0.02 0.04 0.02 81 1016.3
20260502224512 48 335 0.0 10.0 0.02 0.04 0.02 79 1016.5
20260502223009 50 326 1.0 5.0 0.00 0.02 0.00 74 1017.0
20260502221506 50 287 1.0 15.0 0.00 0.02 0.00 71 1016.5
20260502220003 50 76 0.0 2.0 0.00 0.02 0.00 64 1016.5
20260502214601 49 330 0.0 3.0 0.00 0.02 0.00 66 1016.7